G6SGA Weather Reports


time (UTC)temp
F
wind
direction
speed
knots
gust
knots
rain 1hr
in
rain 24hr
in
rain mn
in
humidity
%
barometer
mb
20260502221003 51 6 0.9 3.5 0.09 0.19 0.19 98 1028.2
20260502220710 51 5 0.9 3.5 0.09 0.19 0.18 98 1028.2
20260502220004 51 14 1.7 4.3 0.09 0.17 0.17 98 1028.2
20260502215503 51 8 1.7 4.3 0.08 0.17 0.16 97 1028.2
20260502215003 51 14 1.7 4.3 0.08 0.16 0.16 97 1028.2
20260502214503 51 18 2.6 4.3 0.07 0.15 0.15 97 1028.2
20260502214003 52 16 1.7 4.3 0.07 0.14 0.14 97 1028.2
20260502213503 52 12 1.7 5.2 0.06 0.13 0.13 97 1028.2
20260502213003 52 10 1.7 5.2 0.06 0.13 0.13 96 1028.2
20260502212503 52 11 1.7 3.5 0.06 0.12 0.12 96 1028.2
20260502212210 52 9 1.7 3.5 0.06 0.12 0.12 96 1028.2
20260502211503 52 9 0.9 2.6 0.06 0.11 0.11 95 1028.2
20260502211003 52 349 1.7 4.3 0.05 0.10 0.10 94 1028.2
20260502210503 52 346 1.7 4.3 0.06 0.09 0.09 94 1028.2
20260502210004 52 346 1.7 2.6 0.05 0.09 0.09 94 1028.2
20260502205710 52 347 1.7 2.6 0.05 0.09 0.09 93 1028.2
20260502205211 53 351 1.7 2.6 0.05 0.08 0.08 93 1028.2
20260502204503 53 347 0.9 3.5 0.05 0.07 0.08 92 1028.2
20260502204003 53 341 1.7 3.5 0.05 0.07 0.07 91 1028.2
20260502203503 53 337 0.9 3.5 0.05 0.07 0.07 90 1028.2
20260502203003 53 328 1.7 3.5 0.06 0.07 0.07 90 1028.2
20260502202711 53 332 1.7 3.5 0.06 0.06 0.06 90 1028.2
20260502202211 53 338 1.7 3.5 0.05 0.06 0.06 89 1028.2
20260502201504 54 341 1.7 2.6 0.05 0.05 0.05 87 1028.2
20260502201003 54 346 0.9 2.6 0.04 0.05 0.05 87 1028.2
20260502200711 54 342 0.9 2.6 0.04 0.04 0.04 86 1028.2
20260502200004 54 337 0.9 2.6 0.03 0.04 0.03 85 1028.2
20260502195503 54 344 1.7 3.5 0.03 0.03 0.03 84 1028.2
20260502195003 54 348 1.7 4.3 0.03 0.03 0.03 84 1028.2
20260502194503 54 349 1.7 4.3 0.02 0.02 0.02 83 1028.2
20260502194003 55 351 1.7 2.6 0.02 0.02 0.02 84 1028.2
20260502193503 55 352 1.7 2.6 0.02 0.02 0.02 83 1028.2
20260502193003 55 353 1.7 2.6 0.01 0.01 0.01 81 1028.2
20260502192503 55 349 0.9 2.6 0.01 0.01 0.01 80 1028.2
20260502192003 56 338 0.9 2.6 0.01 0.01 0.01 81 1028.2
20260502191504 56 336 0.9 2.6 0.00 0.00 0.01 81 1028.2
20260502191003 56 335 0.9 2.6 0.00 0.00 0.00 81 1028.2
20260502190503 56 343 0.9 2.6 0.00 0.00 0.00 79 1028.2
20260502190004 56 349 0.9 2.6 0.00 0.00 0.00 78 1028.2
20260502185503 56 350 0.9 2.6 0.00 0.00 0.00 78 1028.2
20260502185003 57 345 0.9 2.6 0.00 0.00 0.00 76 1028.2
20260502184504 57 322 0.9 1.7 0.00 0.00 0.00 75 1028.2
20260502184003 57 323 0.9 1.7 0.00 0.00 0.00 74 1028.2
20260502183504 57 324 0.9 2.6 0.00 0.00 0.00 74 1028.2
20260502183003 57 321 0.9 2.6 0.00 0.00 0.00 75 1028.2
20260502182503 57 314 0.9 2.6 0.00 0.00 0.00 76 1028.2
20260502182003 57 320 0.9 2.6 0.00 0.00 0.00 75 1028.2
20260502181504 57 310 0.9 2.6 0.00 0.00 0.00 74 1028.2
20260502181003 57 302 0.9 2.6 0.00 0.00 0.00 74 1028.2
20260502180503 58 296 0.9 2.6 0.00 0.00 0.00 74 1028.2
20260502164003 61 311 0.9 2.6 0.00 0.00 0.00 61 1028.2
20260502163711 61 316 0.9 2.6 0.00 0.00 0.00 62 1028.2
20260502163003 61 309 0.9 2.6 0.00 0.00 0.00 61 1028.2
20260502162503 61 330 0.9 3.5 0.00 0.00 0.00 61 1028.2
20260502162003 61 346 1.7 3.5 0.00 0.00 0.00 59 1028.2
20260502161503 61 345 1.7 3.5 0.00 0.00 0.00 59 1028.2
20260502161003 61 357 1.7 4.3 0.00 0.00 0.00 60 1028.2
20260502160503 61 21 1.7 4.3 0.00 0.00 0.00 59 1028.2
20260502160211 61 14 0.9 4.3 0.00 0.00 0.00 59 1028.2
20260502152210 62 267 0.9 3.5 0.00 0.00 0.00 55 1028.2
20260502151503 63 298 0.9 4.3 0.00 0.00 0.00 56 1028.2
20260502151211 63 309 0.9 4.3 0.00 0.00 0.00 57 1028.2
20260502150503 63 293 1.7 5.2 0.00 0.00 0.00 53 1028.2
20260502130711 63 241 1.7 4.3 0.00 0.00 0.00 59 1028.2
20260502123711 62 285 2.6 6.1 0.00 0.00 0.00 59 1028.2
20260502123003 62 315 2.6 6.1 0.00 0.00 0.00 62 1028.2
20260502122710 62 307 2.6 6.1 0.00 0.00 0.00 61 1028.2
20260502122003 61 262 1.7 6.1 0.00 0.00 0.00 63 1028.2
20260502121503 61 249 1.7 5.2 0.00 0.00 0.00 63 1028.2
20260502121003 61 206 1.7 5.2 0.00 0.00 0.00 62 1028.2
20260502120711 60 203 1.7 3.5 0.00 0.00 0.00 64 1028.2
20260502115503 60 262 1.7 4.3 0.00 0.00 0.00 65 1028.2
20260502115003 60 272 1.7 3.5 0.00 0.00 0.00 65 1028.2
20260502114503 60 282 1.7 5.2 0.00 0.00 0.00 65 1028.2
20260502114003 60 274 1.7 5.2 0.00 0.00 0.00 66 1028.2
20260502113504 60 267 1.7 5.2 0.00 0.00 0.00 66 1028.2
20260502113004 59 240 1.7 5.2 0.00 0.00 0.00 67 1028.2
20260502112503 59 195 1.7 5.2 0.00 0.00 0.00 67 1028.2
20260502112003 58 138 1.7 5.2 0.00 0.00 0.00 68 1028.2
20260502111503 59 148 1.7 5.2 0.00 0.00 0.00 68 1028.2
20260502111003 59 230 1.7 4.3 0.00 0.00 0.00 67 1028.2
20260502110503 59 270 1.7 4.3 0.00 0.00 0.00 67 1028.2
20260502110004 58 269 1.7 4.3 0.00 0.00 0.00 70 1028.2
20260502105710 58 274 1.7 6.1 0.00 0.00 0.00 70 1028.2
20260502105003 57 280 2.6 6.1 0.00 0.00 0.00 73 1028.2
20260502104503 57 268 1.7 6.1 0.00 0.00 0.00 74 1028.2
20260502104210 57 273 1.7 5.2 0.00 0.00 0.00 73 1028.2
20260502103503 57 276 2.6 7.0 0.00 0.00 0.00 73 1028.2
20260502103211 57 262 2.6 7.0 0.00 0.00 0.00 74 1028.2
20260502102503 57 223 1.7 6.1 0.00 0.00 0.00 72 1028.2
20260502101503 57 272 1.7 5.2 0.00 0.00 0.00 74 1028.2
20260502101003 57 281 1.7 5.2 0.00 0.00 0.00 75 1028.2
20260502100503 57 265 1.7 5.2 0.00 0.00 0.00 74 1028.2
20260502091503 54 260 1.7 4.3 0.00 0.00 0.00 82 1028.2
20260502091003 55 266 1.7 3.5 0.00 0.00 0.00 82 1028.2
20260502090710 55 273 1.7 3.5 0.00 0.00 0.00 81 1028.2
20260502071003 49 233 1.7 4.3 0.00 0.00 0.00 96 1028.2
20260502070503 48 234 0.9 3.5 0.00 0.00 0.00 97 1028.2
20260502070004 48 238 0.9 3.5 0.00 0.00 0.00 97 1028.2
20260502065503 48 242 0.9 2.6 0.00 0.00 0.00 97 1028.2
20260502065003 47 242 0.9 1.7 0.00 0.00 0.00 97 1028.2
20260502064504 48 242 0.9 1.7 0.00 0.00 0.00 97 1028.2
20260502064003 48 231 0.9 1.7 0.00 0.00 0.00 97 1028.2
20260502063503 47 227 0.9 1.7 0.00 0.00 0.00 97 1028.2
20260502063003 47 243 0.9 1.7 0.00 0.00 0.00 98 1028.2
20260502062503 47 249 0.9 1.7 0.00 0.00 0.00 98 1028.2
20260502062003 47 235 0.9 1.7 0.00 0.00 0.00 98 1028.2
20260502061503 47 230 0.9 1.7 0.00 0.00 0.00 98 1028.2
20260502061003 47 207 0.9 2.6 0.00 0.00 0.00 98 1028.2
20260502060711 47 204 0.9 2.6 0.00 0.00 0.00 98 1028.2
20260502060004 47 221 0.9 1.7 0.00 0.00 0.00 97 1028.2
20260502055503 47 227 0.0 1.7 0.00 0.00 0.00 97 1028.2
20260502055003 47 231 0.0 1.7 0.00 0.00 0.00 97 1028.2
20260502054503 47 249 0.0 1.7 0.00 0.00 0.00 98 1028.2
20260502054212 47 244 0.0 1.7 0.00 0.00 0.00 98 1028.2
20260502053711 46 249 0.0 1.7 0.00 0.00 0.00 98 1028.2
20260502053004 46 233 0.9 1.7 0.00 0.00 0.00 99 1028.2
20260502052503 46 233 0.9 1.7 0.00 0.00 0.00 99 1028.2
20260502052013 46 233 0.9 1.7 0.00 0.00 0.00 98 1028.2
20260502051504 46 232 0.9 1.7 0.00 0.00 0.00 98 1028.2
20260502051003 46 235 0.9 2.6 0.00 0.00 0.00 99 1028.2
20260502050504 46 235 0.9 2.6 0.00 0.00 0.00 99 1028.2
20260502050004 46 236 0.9 2.6 0.00 0.00 0.00 99 1028.2
20260502045504 46 241 0.9 2.6 0.00 0.00 0.00 99 1028.2
20260502045004 46 242 0.9 2.6 0.00 0.00 0.00 99 1028.2
20260502044711 46 240 0.9 2.6 0.00 0.00 0.00 99 1028.2
20260502044003 45 240 0.9 2.6 0.00 0.00 0.00 99 1028.2
20260502043504 45 251 0.9 2.6 0.00 0.00 0.00 99 1028.2
20260502043210 45 250 0.9 2.6 0.00 0.00 0.00 99 1028.2
20260502042503 45 249 0.9 2.6 0.00 0.00 0.00 99 1028.2
20260502042003 46 244 0.9 1.7 0.00 0.00 0.00 99 1028.2
20260502041503 46 244 0.9 2.6 0.00 0.00 0.00 99 1028.2
20260502041211 46 239 0.9 2.6 0.00 0.00 0.00 99 1028.2
20260502040503 46 236 0.9 2.6 0.00 0.00 0.00 99 1028.2
20260502040004 46 243 0.9 2.6 0.00 0.00 0.00 99 1028.2
20260502035503 46 242 0.9 3.5 0.00 0.00 0.00 99 1028.2
20260502035003 46 232 0.9 3.5 0.00 0.00 0.00 99 1028.2
20260502034503 46 234 1.7 3.5 0.00 0.00 0.00 99 1028.2
20260502034003 46 238 1.7 3.5 0.00 0.00 0.00 99 1028.2
20260502033504 46 239 0.9 2.6 0.00 0.00 0.00 99 1028.2
20260502032503 46 240 0.9 2.6 0.00 0.00 0.00 99 1028.2
20260502032003 46 242 1.7 2.6 0.00 0.00 0.00 99 1028.2
20260502031503 46 239 1.7 2.6 0.00 0.00 0.00 99 1028.2
20260502031003 46 228 1.7 3.5 0.00 0.00 0.00 99 1028.2
20260502030503 46 226 1.7 3.5 0.00 0.00 0.00 99 1028.2
20260502030014 46 229 1.7 2.6 0.00 0.00 0.00 99 1028.2
20260502025003 46 240 0.9 2.6 0.00 0.00 0.00 99 1028.2
20260502024503 46 248 0.9 2.6 0.00 0.00 0.00 99 1028.2
20260502024003 46 244 0.9 2.6 0.00 0.00 0.00 99 1028.2
20260502023503 46 239 1.7 2.6 0.00 0.00 0.00 99 1028.2
20260502023003 46 239 1.7 3.5 0.00 0.00 0.00 99 1028.2
20260502022503 46 247 1.7 3.5 0.00 0.00 0.00 99 1028.2
20260502022003 46 255 1.7 3.5 0.00 0.00 0.00 99 1028.2
20260502021504 46 262 1.7 3.5 0.00 0.00 0.00 99 1028.2
20260502021003 46 254 1.7 3.5 0.00 0.00 0.00 99 1028.2
20260502020503 46 240 1.7 4.3 0.00 0.00 0.00 99 1028.2
20260502020004 46 235 1.7 4.3 0.00 0.00 0.00 99 1028.2
20260502015503 46 237 1.7 3.5 0.00 0.00 0.00 99 1028.2
20260502015211 47 244 1.7 3.5 0.00 0.00 0.00 99 1028.2
20260502014503 47 241 1.7 3.5 0.00 0.00 0.00 99 1028.2
20260502014004 47 246 1.7 3.5 0.00 0.00 0.00 99 1028.2
20260502013503 47 257 0.9 2.6 0.00 0.00 0.00 99 1028.2
20260502013003 47 245 1.7 3.5 0.00 0.00 0.00 99 1028.2
20260502012503 47 242 1.7 4.3 0.00 0.00 0.00 99 1028.2
20260502012004 47 243 1.7 4.3 0.00 0.00 0.00 99 1028.2
20260502011004 48 232 1.7 5.2 0.00 0.00 0.00 99 1028.2
20260502010503 48 236 1.7 5.2 0.00 0.00 0.00 99 1028.2
20260502010004 48 243 2.6 6.1 0.00 0.00 0.00 99 1028.2
20260502005504 48 244 2.6 6.1 0.00 0.00 0.00 99 1028.2
20260502005004 48 248 2.6 5.2 0.00 0.00 0.00 99 1028.2
20260502004004 49 243 2.6 6.1 0.00 0.00 0.00 99 1028.2
20260502003013 50 243 1.7 6.1 0.00 0.00 0.00 99 1028.2
20260502002513 50 253 1.7 4.3 0.00 0.00 0.00 99 1028.2
20260502002004 50 253 1.7 4.3 0.00 0.00 0.00 99 1028.2
20260502001503 50 257 0.9 3.5 0.00 0.00 0.00 99 1028.2
20260502001004 50 258 0.9 2.6 0.00 0.00 0.00 99 1028.2
20260502000503 51 269 0.9 2.6 0.00 0.00 0.00 99 1028.2
20260502000004 51 276 0.9 2.6 0.00 0.00 0.00 99 1028.2
20260501234004 51 289 0.9 2.6 0.00 0.00 0.00 99 1028.2
20260501233504 51 290 0.9 3.5 0.00 0.00 0.00 99 1028.2
20260501233003 51 280 0.9 3.5 0.00 0.00 0.00 99 1028.2
20260501232503 51 282 0.9 2.6 0.00 0.00 0.00 99 1028.2
20260501232211 52 291 0.9 1.7 0.00 0.00 0.00 99 1028.2
20260501231504 52 291 0.9 2.6 0.00 0.00 0.00 99 1028.2
20260501231211 52 291 0.9 2.6 0.00 0.00 0.00 99 1028.2
20260501230503 52 299 0.9 2.6 0.00 0.00 0.00 99 1028.2
20260501230005 52 301 0.9 3.5 0.00 0.00 0.00 99 1028.2
20260501225503 52 296 0.9 3.5 0.00 0.00 0.01 99 1028.2
20260501225004 52 297 0.9 2.6 0.00 0.00 0.01 99 1028.2
20260501224503 52 301 0.9 2.6 0.00 0.00 0.01 99 1028.2
20260501224210 52 304 0.9 3.5 0.00 0.00 0.01 99 1028.2
20260501223503 52 304 1.7 3.5 0.00 0.00 0.01 99 1028.2
20260501223003 52 307 1.7 3.5 0.00 0.00 0.01 99 1028.2
20260501222711 52 299 1.7 4.3 0.00 0.00 0.01 99 1028.2
20260501222003 53 288 1.7 4.3 0.00 0.00 0.01 99 1028.2